Wind_Speed
28 28 28 28 28 27 26 25 23 20 18 17 15 13 11 10 9 9 8 8 7 7 7 6 6 6 6 6 6 6 6 6 6 6 6 6 6 6 6 6 6 6 7
30 29 29 29 28 28 28 27 26 24 22 20 18 15 14 12 11 10 10 9 9 8 8 8 8 7 7 7 7 7 7 7 7 7 7 7 7 7 7 7 7 7 8
32 32 31 30 29 29 29 29 28 27 25 23 21 18 17 15 13 12 11 11 11 10 10 9 9 9 9 8 8 8 8 8 9 9 9 9 8 8 8 8 8 8 9
33 33 33 32 30 30 30 30 30 29 28 26 24 22 20 18 16 15 14 13 12 12 11 11 11 11 10 9 9 9 9 9 9 10 10 10 10 9 9 9 10 10 11
35 35 35 34 33 32 31 31 31 31 30 29 27 25 23 21 19 17 16 15 14 14 13 12 12 12 11 11 11 11 11 11 11 11 11 11 11 11 10 11 11 11 12
37 37 36 35 34 33 33 32 32 32 31 31 30 28 26 24 21 20 19 18 17 16 15 14 13 13 13 13 12 12 12 12 12 12 12 12 12 12 12 12 12 12 13
40 39 38 37 36 36 34 34 33 33 32 32 31 31 29 27 24 22 21 20 19 18 17 16 15 15 15 14 14 14 14 13 13 14 14 13 13 13 13 13 14 14 14
44 43 41 39 39 38 37 36 35 34 33 33 33 32 31 29 27 25 23 22 21 20 19 18 17 16 16 16 15 15 15 15 15 15 15 15 15 15 15 15 15 15 15
47 46 44 42 41 40 39 38 37 36 34 34 33 33 32 32 30 28 26 24 23 22 21 20 19 18 18 17 17 16 17 17 16 16 16 16 16 16 16 17 17 17 17
49 48 47 45 44 43 42 40 39 39 37 36 34 34 33 33 32 31 28 27 25 24 23 21 21 20 19 19 18 18 18 18 18 18 17 18 18 18 18 18 18 19 19
53 51 50 48 47 45 45 44 42 41 40 38 37 35 34 34 33 32 31 29 27 26 25 23 22 21 21 20 20 19 19 19 19 19 19 19 20 20 20 20 20 20 21
55 54 52 51 50 48 47 46 45 43 42 40 39 38 36 35 34 33 32 31 30 28 27 25 23 23 22 22 21 21 21 20 20 21 21 21 21 22 22 22 22 22 23
57 56 55 54 52 51 50 49 48 46 44 43 41 39 38 37 35 35 34 33 32 31 29 27 25 25 24 24 23 23 23 22 22 22 23 23 23 24 24 24 24 24 24
59 58 57 56 55 54 53 52 50 48 46 45 43 41 40 39 37 36 36 34 33 31 30 29 28 27 26 25 25 25 25 25 25 25 25 25 25 25 26 26 25 25 26
61 60 59 58 57 56 55 54 52 51 49 48 45 44 41 40 39 38 37 36 34 33 32 31 31 29 28 27 27 26 26 27 27 27 27 27 27 27 27 27 27 27 27
62 61 61 60 59 58 57 55 54 53 51 49 48 45 43 42 41 39 39 38 36 35 33 33 32 31 31 29 29 29 29 29 29 29 29 28 28 29 29 29 29 29 29
62 62 62 61 61 60 58 57 56 55 54 52 50 48 46 44 43 42 41 39 37 36 36 35 35 34 32 31 31 31 31 31 31 31 31 31 31 31 31 31 31 31 31
61 62 63 63 62 61 60 59 57 57 56 54 51 50 48 46 45 43 42 40 39 38 38 37 36 35 34 33 33 33 32 32 32 32 33 33 33 33 33 33 33 33 33
58 60 61 63 64 63 63 62 60 59 57 56 54 51 49 47 46 44 43 42 41 41 40 38 37 37 36 36 35 35 34 34 34 34 34 35 35 35 35 35 35 35 35
54 57 59 61 63 64 64 64 63 61 59 57 55 53 50 49 47 45 43 43 43 42 40 39 38 38 39 38 38 37 37 37 37 37 37 37 38 38 37 37 37 38 38
46 51 53 55 56 59 62 63 63 62 60 58 56 54 53 51 49 47 45 44 43 42 41 40 41 40 41 41 40 39 39 39 39 39 40 39 39 39 39 39 38 39 39
38 43 47 50 51 53 57 59 61 62 61 59 57 56 54 53 51 48 46 44 43 43 42 41 42 42 41 42 43 43 42 41 41 40 41 41 41 42 41 42 42 42 41
35 38 42 46 48 50 52 54 57 60 59 58 57 56 54 53 52 50 49 47 46 45 44 43 44 44 43 43 43 44 44 44 44 43 43 43 44 44 44 44 45 45 44
31 36 38 40 43 46 49 50 53 55 56 56 55 55 54 54 53 51 50 48 46 45 45 46 45 44 44 45 46 46 46 46 46 45 44 45 45 46 46 47 47 46 46
26 30 34 35 37 40 44 46 48 50 51 51 53 54 54 53 53 52 51 49 49 48 47 47 46 46 47 48 49 48 48 48 48 48 47 47 47 48 48 48 47 47 47
21 26 30 32 31 34 39 41 42 43 45 48 51 53 53 54 54 53 52 51 50 50 48 47 48 49 51 51 50 50 50 49 49 49 49 48 48 48 48 48 48 48 48
Wind_Direction
249 249 249 248 247 247 246 244 242 241 240 240 239 241 244 248 252 255 257 259 264 269 270 272 279 286 288 282 277 275 271 266 267 268 271 274 276 283 291 301 311 319 329
251 249 249 249 247 246 246 246 244 242 241 241 240 241 243 247 250 252 255 257 259 263 266 268 271 277 282 281 278 275 272 270 268 269 270 273 276 280 287 294 301 308 317
251 250 249 248 248 246 245 245 244 243 242 242 241 242 243 246 248 250 254 257 259 260 264 268 269 272 276 277 276 274 273 273 271 270 272 272 275 279 285 289 293 300 307
250 249 248 248 247 246 245 244 244 243 242 241 242 242 243 245 247 249 252 256 258 259 261 266 268 269 271 274 273 273 274 274 272 272 274 274 274 278 283 286 290 295 301
249 247 247 246 246 246 244 244 243 242 242 241 242 243 243 244 246 248 251 254 257 258 258 262 265 266 268 271 272 272 273 274 272 271 273 273 274 277 280 284 288 292 297
248 246 245 245 244 244 244 243 243 242 241 242 242 243 244 244 245 247 250 253 255 257 257 259 262 265 266 267 269 270 270 272 271 271 271 272 274 276 279 283 286 290 294
248 246 244 244 243 243 243 243 243 243 241 242 243 243 244 244 245 246 248 251 253 256 256 257 260 264 266 266 268 269 269 270 271 271 271 271 272 275 279 282 285 288 291
246 245 244 243 243 243 243 242 242 243 242 242 242 243 243 244 245 245 247 248 251 253 255 256 259 263 265 266 268 269 269 269 269 270 270 271 272 275 278 280 284 287 289
245 244 243 242 242 242 242 242 242 241 242 241 242 242 243 244 244 244 245 247 250 252 254 255 257 260 263 265 267 268 269 268 267 268 269 270 272 276 279 281 283 285 288
243 242 242 242 242 242 242 242 242 241 241 241 241 241 243 244 244 244 245 246 248 251 253 255 256 258 261 264 266 267 269 268 266 266 267 269 272 275 279 281 282 285 287
242 241 241 241 241 242 242 242 241 241 240 240 240 240 242 243 245 245 244 245 248 250 252 254 255 257 260 262 264 266 267 268 267 266 268 269 271 274 277 279 282 284 286
241 241 240 240 240 241 241 241 241 240 239 238 239 240 241 242 244 245 244 244 246 249 251 253 254 256 259 261 263 265 266 267 267 267 267 268 271 273 275 278 281 283 285
241 240 239 239 239 240 240 239 239 240 240 238 237 239 240 240 242 244 245 245 246 248 251 252 253 255 258 260 261 263 265 265 266 266 267 269 270 272 274 277 279 282 283
240 239 238 238 239 239 239 239 238 238 239 238 237 238 239 240 241 243 244 245 245 248 251 252 253 254 257 259 261 262 264 265 265 266 267 269 271 272 274 276 278 280 282
239 238 238 238 237 239 238 237 237 237 238 238 236 236 239 240 240 242 243 244 245 247 249 251 252 253 254 256 259 261 263 264 264 266 267 269 271 272 274 275 277 278 280
238 237 237 237 237 238 237 237 236 237 236 236 235 236 238 239 240 242 244 244 245 246 248 250 252 253 254 255 258 260 262 263 264 265 267 269 271 272 274 275 276 278 280
237 237 236 237 236 236 236 236 236 235 234 235 234 234 237 238 239 241 243 243 244 246 247 249 251 253 255 256 259 261 262 263 265 266 267 268 270 272 274 275 275 277 279
236 236 236 236 235 235 236 235 235 234 234 234 234 234 236 238 238 240 240 242 244 246 248 249 251 253 255 257 259 261 262 264 265 267 268 269 271 272 274 275 276 277 279
236 236 235 234 234 233 234 234 234 234 233 234 234 233 234 236 236 237 240 242 244 246 248 249 251 253 255 257 258 260 262 264 266 267 268 269 271 272 273 275 276 278 279
237 236 235 234 233 232 233 233 233 233 233 233 233 232 233 234 235 235 239 241 243 245 247 250 253 255 256 257 259 260 262 264 266 267 268 270 272 272 273 275 276 278 278
237 235 234 233 232 232 232 232 231 232 231 231 232 232 231 233 234 235 238 242 244 245 248 251 253 255 257 258 259 260 262 264 266 268 268 270 271 272 272 274 275 277 277
237 235 235 231 230 230 231 232 231 230 231 231 231 231 231 232 233 233 237 241 245 247 248 251 253 255 257 258 260 260 261 262 265 267 268 269 270 272 272 273 274 276 277
238 236 234 230 230 230 230 231 231 230 230 230 230 230 230 231 233 234 237 240 244 246 248 250 253 256 257 259 260 261 262 263 265 265 267 268 269 271 271 272 274 275 275
237 234 230 228 228 230 231 231 231 230 230 231 230 230 230 231 233 234 237 240 244 247 249 252 254 256 257 258 260 262 264 265 267 266 267 268 269 270 271 272 273 273 274
237 233 227 227 229 229 229 229 230 229 229 230 230 229 230 231 233 235 237 241 244 247 251 252 253 255 258 260 262 264 265 266 267 268 268 269 269 270 271 272 272 273 275
231 226 224 225 226 226 227 227 227 227 230 231 230 231 231 231 232 235 238 242 245 248 250 252 254 257 259 260 262 263 264 266 267 268 270 270 270 271 271 271 272 273 275
Height
5849 5851 5853 5855 5857 5859 5861 5863 5865 5867 5868 5870 5871 5872 5873 5874 5875 5876 5877 5877 5878 5879 5879 5880 5881 5881 5881 5882 5882 5882 5883 5883 5883 5883 5883 5883 5883 5883 5883 5883 5882 5882 5881
5844 5847 5849 5851 5853 5855 5857 5860 5862 5864 5865 5867 5868 5870 5871 5872 5873 5874 5875 5876 5876 5877 5878 5879 5879 5880 5880 5880 5881 5881 5882 5882 5882 5882 5882 5882 5882 5882 5882 5882 5881 5881 5880
5839 5842 5844 5846 5848 5851 5853 5855 5857 5860 5862 5864 5865 5867 5868 5870 5871 5872 5873 5874 5875 5876 5877 5877 5878 5878 5879 5879 5880 5880 5880 5881 5881 5881 5881 5881 5881 5881 5881 5881 5880 5880 5879
5834 5836 5838 5841 5844 5846 5848 5850 5853 5855 5858 5860 5862 5864 5865 5867 5868 5869 5871 5872 5873 5874 5875 5876 5876 5877 5877 5878 5878 5879 5879 5879 5880 5880 5880 5880 5880 5880 5879 5879 5879 5878 5878
5828 5830 5832 5835 5838 5840 5843 5845 5848 5850 5853 5856 5858 5860 5862 5863 5865 5867 5868 5869 5870 5872 5873 5873 5874 5875 5875 5876 5876 5877 5877 5878 5878 5878 5878 5878 5878 5878 5878 5878 5877 5877 5876
5820 5823 5826 5829 5832 5835 5838 5840 5842 5845 5848 5851 5853 5856 5858 5860 5862 5863 5865 5866 5868 5869 5870 5871 5872 5872 5873 5874 5874 5875 5875 5876 5876 5876 5876 5877 5876 5876 5876 5876 5875 5875 5874
5813 5816 5819 5823 5826 5829 5832 5834 5837 5840 5842 5845 5848 5851 5853 5855 5857 5859 5861 5863 5864 5866 5867 5868 5869 5870 5871 5871 5872 5873 5873 5873 5874 5874 5874 5874 5874 5874 5874 5874 5873 5873 5872
5804 5808 5812 5816 5819 5822 5825 5828 5831 5834 5837 5840 5843 5846 5848 5851 5853 5855 5857 5859 5861 5862 5864 5865 5866 5867 5868 5869 5869 5870 5870 5871 5871 5871 5872 5872 5872 5872 5871 5871 5871 5870 5870
5795 5799 5804 5808 5811 5815 5818 5822 5825 5828 5831 5834 5837 5840 5843 5846 5848 5851 5853 5855 5857 5858 5860 5862 5863 5864 5865 5865 5866 5867 5868 5868 5868 5869 5869 5869 5869 5869 5869 5868 5868 5868 5867
5785 5790 5795 5799 5803 5807 5811 5814 5818 5821 5825 5828 5831 5834 5837 5840 5843 5846 5848 5850 5852 5854 5856 5858 5859 5860 5861 5862 5863 5864 5864 5865 5865 5865 5866 5866 5866 5866 5866 5866 5865 5865 5864
5774 5780 5785 5790 5794 5798 5802 5806 5810 5814 5817 5821 5825 5828 5831 5834 5837 5840 5843 5845 5848 5849 5851 5853 5855 5856 5857 5858 5859 5860 5861 5861 5862 5862 5862 5863 5863 5863 5862 5862 5862 5861 5861
5763 5769 5774 5779 5784 5789 5794 5798 5802 5806 5810 5814 5818 5821 5825 5828 5831 5834 5837 5840 5842 5844 5846 5848 5850 5852 5853 5854 5855 5856 5857 5857 5858 5858 5858 5859 5859 5859 5859 5858 5858 5857 5857
5751 5757 5763 5769 5774 5779 5784 5789 5794 5798 5802 5806 5811 5814 5818 5821 5824 5828 5831 5834 5837 5839 5841 5844 5845 5847 5848 5849 5850 5851 5852 5853 5853 5854 5854 5854 5854 5854 5854 5854 5853 5853 5852
5738 5745 5751 5757 5763 5768 5774 5779 5784 5789 5794 5799 5803 5807 5811 5815 5818 5822 5825 5828 5831 5834 5836 5838 5840 5841 5843 5844 5845 5846 5847 5848 5849 5849 5849 5850 5850 5850 5849 5849 5849 5848 5847
5725 5732 5739 5745 5751 5757 5763 5769 5775 5780 5785 5790 5794 5799 5803 5807 5811 5815 5818 5821 5824 5827 5830 5832 5834 5836 5838 5839 5840 5841 5842 5843 5843 5844 5844 5844 5844 5844 5844 5844 5843 5843 5842
5711 5719 5725 5732 5739 5745 5752 5759 5765 5770 5776 5781 5786 5790 5795 5800 5804 5808 5811 5814 5818 5821 5823 5826 5828 5830 5831 5833 5834 5835 5836 5837 5838 5838 5839 5839 5839 5839 5839 5838 5838 5837 5836
5698 5705 5712 5719 5726 5733 5740 5747 5753 5759 5765 5771 5777 5782 5787 5792 5796 5800 5804 5807 5811 5814 5816 5819 5821 5823 5825 5827 5828 5829 5830 5831 5832 5832 5832 5833 5833 5833 5832 5832 5832 5831 5830
5683 5691 5699 5705 5713 5720 5727 5734 5741 5748 5755 5761 5767 5773 5778 5782 5787 5792 5796 5800 5803 5807 5809 5812 5814 5816 5818 5820 5821 5822 5823 5824 5825 5825 5826 5826 5826 5826 5826 5825 5825 5824 5824
5670 5677 5684 5691 5699 5707 5714 5721 5729 5736 5743 5750 5757 5763 5769 5773 5778 5783 5788 5792 5796 5799 5802 5804 5807 5809 5811 5812 5814 5815 5816 5817 5817 5818 5818 5819 5819 5819 5819 5818 5818 5817 5816
5656 5663 5670 5677 5684 5692 5700 5708 5716 5723 5732 5738 5746 5753 5758 5764 5769 5775 5779 5783 5787 5791 5794 5796 5799 5801 5803 5804 5805 5807 5808 5809 5810 5810 5811 5811 5811 5811 5811 5810 5810 5809 5808
5644 5650 5657 5664 5672 5679 5687 5695 5703 5711 5719 5727 5735 5742 5748 5754 5760 5765 5770 5775 5778 5782 5786 5788 5791 5792 5794 5795 5797 5799 5800 5801 5802 5802 5802 5802 5803 5802 5802 5801 5801 5800 5799
5634 5640 5646 5653 5661 5668 5676 5683 5691 5699 5707 5715 5723 5731 5738 5744 5751 5756 5761 5766 5770 5773 5776 5779 5782 5783 5785 5786 5788 5789 5791 5793 5793 5794 5793 5793 5793 5793 5793 5792 5791 5790 5789
5626 5630 5636 5643 5650 5658 5665 5672 5678 5686 5694 5703 5711 5720 5727 5734 5741 5746 5752 5756 5760 5764 5767 5770 5773 5775 5776 5777 5778 5779 5780 5782 5784 5784 5784 5784 5783 5783 5782 5781 5780 5780 5779
5618 5622 5628 5634 5641 5648 5655 5661 5668 5675 5684 5693 5701 5709 5716 5723 5730 5736 5741 5746 5750 5754 5758 5761 5763 5765 5766 5767 5768 5769 5770 5771 5771 5773 5774 5773 5772 5772 5771 5770 5769 5768 5767
5612 5616 5621 5627 5633 5639 5646 5653 5660 5667 5675 5683 5690 5698 5705 5712 5719 5725 5731 5736 5740 5744 5748 5750 5753 5755 5756 5757 5758 5758 5759 5759 5758 5758 5760 5762 5761 5760 5759 5758 5757 5756 5756
5608 5612 5616 5621 5626 5632 5639 5645 5652 5660 5667 5673 5680 5687 5694 5702 5708 5714 5720 5726 5730 5734 5737 5739 5742 5743 5744 5746 5746 5746 5746 5747 5747 5746 5746 5747 5747 5748 5747 5746 5745 5745 5744